SCP
2 2 1 1 1 1 1 1 0 0 0 0 0 0 0 0 0 1 0 0 0 0 0 0 0 0 0 0 0 0 0 0 0 0 0 0 0 0
3 2 2 2 1 1 1 1 0 0 0 0 0 0 0 0 0 0 0 0 0 0 0 0 0 0 0 0 0 0 0 0 0 0 0 0 0 0
1 2 1 1 1 1 1 1 1 0 0 0 0 0 0 0 0 0 0 0 0 0 0 0 0 0 0 0 0 0 0 0 0 0 0 0 0 0
1 1 1 1 0 1 1 0 0 0 0 0 0 0 0 0 0 0 0 0 0 0 0 0 0 0 0 0 0 0 0 0 0 0 0 0 0 0
1 1 0 0 0 0 0 0 0 0 0 0 0 0 0 0 0 0 0 0 0 0 0 0 0 0 0 0 0 0 0 0 0 0 0 0 0 0
0 0 0 0 0 0 0 0 0 0 0 0 0 0 0 0 0 0 0 0 0 0 0 0 0 0 0 0 0 0 0 0 0 0 0 0 0 0
0 0 0 0 0 0 0 0 0 0 0 0 0 0 0 0 0 0 0 0 0 0 0 0 0 0 0 0 0 0 0 0 0 0 0 0 0 0
0 0 0 0 0 0 0 0 0 0 0 0 0 0 0 0 0 0 0 0 0 0 0 0 0 0 0 0 0 0 0 0 0 0 0 0 0 0
0 0 0 0 0 0 0 0 0 0 0 0 0 0 0 0 0 0 0 0 0 0 0 0 0 0 0 0 0 0 0 0 0 0 0 0 0 0
0 0 0 0 0 0 0 0 0 0 -0 -0 0 0 0 0 0 0 0 0 0 0 0 0 0 0 0 0 0 -0 -0 -0 -0 -0 0 0 0 0
0 0 0 0 0 0 0 0 0 0 -0 0 0 0 0 0 0 0 0 0 0 0 -0 0 0 0 0 0 0 0 0 0 -0 -0 -0 -0 0 -0
0 0 0 0 0 0 0 0 0 0 0 0 0 0 0 0 0 0 0 0 0 0 0 0 0 0 0 0 0 0 -0 -0 -0 -0 -0 -0 0 0
0 0 0 0 0 0 0 0 0 0 0 0 0 0 0 0 0 -0 -0 0 0 0 0 0 0 0 0 0 0 0 0 -0 -0 -0 -0 -0 0 0
0 0 0 0 0 0 0 0 0 0 0 0 0 0 0 0 0 0 0 0 0 0 0 0 0 0 0 0 0 0 0 -0 0 -0 -0 -0 0 0
0 0 0 0 0 0 0 0 0 0 0 0 0 0 0 0 0 0 0 0 0 0 0 0 0 0 0 0 0 0 0 0 0 0 0 0 0 0
0 0 0 0 0 0 0 0 0 0 0 0 0 0 0 0 0 0 0 0 0 0 0 0 0 0 0 0 0 0 0 0 0 0 0 0 0 0
0 0 0 0 0 0 0 0 0 0 0 0 0 0 0 0 0 0 0 0 0 0 0 0 0 0 0 0 0 0 0 0 0 0 0 0 0 0
0 0 0 0 0 0 0 0 0 0 0 0 0 0 0 0 0 0 0 0 0 0 0 0 0 0 0 0 0 0 0 0 0 0 0 0 0 0
0 0 0 0 0 0 0 0 0 0 0 0 0 0 0 0 0 0 0 0 0 0 0 0 0 0 0 0 0 0 0 0 0 0 0 0 0 0
0 0 0 0 0 0 0 0 0 0 0 0 0 0 0 0 0 0 0 0 0 0 0 0 0 0 0 0 0 0 0 0 0 0 0 0 0 0
0 0 0 0 0 0 0 0 0 0 0 0 0 0 0 0 0 0 0 0 0 0 0 0 0 0 0 0 0 0 0 0 0 0 0 0 0 0
0 0 0 0 0 0 0 0 0 0 0 0 0 0 0 0 0 0 0 0 0 0 0 0 0 0 0 0 0 0 0 0 0 0 0 0 0 0
0 0 0 0 0 0 0 0 0 0 0 0 0 0 0 0 0 0 0 0 0 0 0 0 0 0 0 0 0 0 0 0 0 0 0 0 0 0
Wind_Speed_500mb
74 74 74 71 67 69 78 84 85 66 70 80 74 74 73 78 76 66 59 52 53 52 51 52 38 39 46 51 48 45 46 43 39 36 34 33 31 26
74 73 72 69 66 63 62 72 81 78 74 78 73 69 68 75 70 68 64 57 60 57 61 56 63 58 55 52 50 50 45 45 41 39 36 32 27 24
73 76 77 68 64 60 61 63 69 72 78 78 73 66 56 59 61 70 65 61 69 68 74 70 62 54 51 48 50 49 48 44 42 39 33 29 26 24
66 67 68 65 66 63 59 61 65 72 73 74 71 61 58 55 62 67 68 70 77 75 66 60 53 47 48 48 47 48 47 44 41 36 31 30 28 25
65 65 64 58 56 54 53 53 54 57 62 65 63 62 63 64 68 71 74 81 78 66 62 54 49 45 46 49 50 49 46 43 39 34 33 30 27 26
57 49 47 46 45 44 47 51 52 54 55 56 60 66 70 65 60 60 66 84 74 71 62 59 54 46 45 45 44 43 45 41 37 35 35 35 32 27
49 51 51 47 48 50 52 51 50 48 50 51 57 61 61 60 61 68 69 75 50 62 64 63 60 51 47 43 45 46 46 42 40 42 42 38 33 29
43 44 44 40 38 34 31 29 37 44 46 41 48 60 59 56 65 72 78 71 66 66 65 58 50 50 46 47 49 50 44 43 47 47 44 38 33 29
43 42 39 33 29 23 21 19 22 25 26 26 15 45 40 70 61 52 62 62 74 62 65 61 55 49 46 43 43 44 48 50 49 47 43 38 33 29
43 40 36 36 30 26 21 22 20 17 14 9 4 6 17 37 36 46 50 54 46 51 60 52 49 46 42 41 42 44 45 44 48 47 42 38 34 32
42 44 38 42 37 32 29 28 20 15 18 18 14 12 14 22 31 39 44 47 53 50 59 41 46 44 43 41 40 38 39 44 48 46 42 38 36 33
45 48 40 44 43 43 40 33 24 22 22 21 17 20 22 25 31 35 49 63 53 39 50 47 38 44 35 39 40 42 44 45 47 47 46 44 41 39
49 47 46 42 35 29 35 39 29 27 22 19 18 18 22 32 43 46 45 52 52 42 44 47 38 47 29 40 47 47 44 42 46 50 51 49 46 43
52 55 52 47 35 33 34 35 35 34 30 28 25 27 33 39 45 50 48 48 46 40 16 35 41 44 43 31 38 43 42 45 45 49 50 51 51 49
52 60 59 53 38 38 41 38 42 45 38 34 33 32 31 35 46 49 50 47 42 41 39 25 33 40 44 42 38 41 39 46 50 52 51 49 52 51
40 48 54 53 46 35 40 43 53 50 47 41 38 34 31 34 36 43 51 50 47 41 38 30 30 39 43 46 53 38 40 47 44 48 48 48 48 46
42 46 49 59 55 49 41 43 55 50 51 46 41 39 40 37 36 40 48 55 50 53 44 34 16 28 36 44 50 52 45 41 41 36 44 52 50 48
40 52 61 61 63 55 46 48 58 57 52 49 49 44 44 41 37 39 51 58 50 48 47 48 39 38 42 35 36 44 44 43 42 38 43 43 46 48
41 52 62 65 62 51 47 51 57 62 53 51 59 54 47 43 41 45 45 51 56 53 53 49 47 49 54 57 59 53 49 45 43 42 43 44 46 43
38 48 58 54 53 51 48 51 56 56 55 54 56 60 57 49 40 55 56 59 57 50 49 54 50 49 44 50 61 63 61 62 59 59 57 53 54 49
41 47 53 47 48 48 46 53 56 59 59 58 59 63 66 62 54 45 48 50 53 57 57 58 49 41 45 51 49 43 39 41 41 44 46 51 58 71
29 39 48 47 48 47 46 47 49 55 59 59 58 60 63 69 67 61 55 50 53 50 52 49 52 56 60 61 61 56 45 42 40 45 48 45 49 47
27 28 31 37 42 43 46 48 52 53 57 59 57 59 58 59 54 57 61 60 55 53 48 53 51 52 48 64 61 59 54 54 55 51 51 51 51 49
Wind_Direction_500mb
273 272 272 268 261 259 257 257 256 248 253 254 251 255 252 252 254 251 235 244 249 245 250 228 232 237 232 229 226 223 222 214 210 203 198 192 193 202
274 274 273 270 267 262 258 258 256 256 255 258 256 256 254 251 249 238 242 253 240 246 228 244 257 248 240 223 223 223 211 207 202 198 197 202 201 203
276 274 273 273 272 269 262 259 259 255 253 257 252 254 246 238 237 240 243 239 237 242 242 248 240 232 222 217 213 208 203 199 195 195 197 201 205 205
281 276 272 273 273 267 262 260 259 256 250 251 254 239 225 241 244 241 244 237 238 247 238 222 226 219 211 203 198 196 194 191 192 195 196 201 200 194
284 279 275 271 267 266 263 259 256 253 249 244 249 246 242 245 244 244 240 241 243 230 209 214 204 200 199 196 193 191 191 191 194 196 196 191 189 185
282 277 272 266 266 264 261 258 254 247 242 238 240 245 249 248 242 234 235 225 229 198 206 202 195 192 194 194 192 194 196 197 199 196 188 183 183 181
273 271 272 271 266 261 257 255 250 244 240 237 242 244 244 243 234 230 228 201 196 201 201 198 185 186 196 198 201 204 203 201 196 190 185 181 178 173
265 265 265 261 256 253 243 242 240 241 241 240 249 242 234 239 231 221 209 204 180 192 190 179 184 190 191 201 202 203 198 194 191 189 183 182 182 181
262 259 257 245 232 219 211 213 207 206 224 239 277 230 227 215 203 203 205 213 192 190 180 180 188 195 197 196 195 192 192 189 188 186 186 189 190 193
257 246 232 223 216 205 208 202 200 214 211 187 166 236 210 219 203 206 205 204 195 185 180 188 193 192 191 191 192 191 190 190 188 189 193 196 200 206
244 236 223 220 214 206 206 198 190 185 164 142 130 140 180 191 191 194 194 181 166 179 189 195 196 189 192 191 192 192 192 191 192 196 197 201 206 213
233 228 225 225 217 209 205 197 198 195 185 172 152 141 158 170 177 178 172 171 172 178 191 194 194 187 195 192 191 191 193 197 201 201 203 207 214 221
229 220 214 207 205 200 206 205 192 203 191 176 168 173 162 171 176 178 181 182 183 182 191 194 198 192 187 194 196 199 197 202 209 211 213 219 225 231
224 215 213 200 197 207 207 211 203 205 203 193 194 191 192 187 184 187 188 193 200 188 176 204 207 205 201 195 198 207 213 220 221 220 221 225 230 234
224 213 216 207 210 212 214 218 209 204 206 206 205 202 202 204 195 194 198 199 204 207 215 220 219 210 210 213 214 212 220 219 218 224 223 226 230 232
214 216 214 214 212 215 220 218 206 209 212 212 210 205 200 198 200 200 199 198 198 196 200 213 228 223 221 224 222 229 218 219 218 221 224 230 234 232
204 212 211 210 215 220 215 212 208 206 211 209 207 201 199 196 199 202 200 190 195 202 208 209 219 216 224 232 228 227 232 229 227 232 235 231 233 235
215 220 211 212 218 220 227 217 203 205 207 206 205 202 196 195 190 197 202 206 212 216 222 220 232 234 226 224 219 227 228 225 226 234 227 231 240 240
213 218 218 221 223 229 228 216 208 206 208 209 206 208 208 208 222 211 210 215 219 227 232 230 227 229 229 228 229 228 224 226 229 233 237 232 240 239
220 217 222 225 226 229 221 218 217 214 210 211 212 211 213 216 217 218 221 220 218 220 226 228 227 232 233 235 237 241 246 246 245 248 246 250 254 249
221 229 229 229 232 233 227 226 223 219 215 215 215 217 220 219 221 222 218 226 223 227 229 227 237 233 238 239 239 236 234 238 241 248 248 253 255 250
245 230 231 234 235 231 225 225 224 219 219 220 224 225 226 225 227 230 226 224 227 232 233 241 241 242 233 239 240 239 237 240 245 247 247 245 248 248
247 247 242 234 230 226 229 231 226 223 224 225 228 228 222 221 221 225 229 233 235 237 234 234 242 250 250 244 243 241 245 246 248 246 244 246 249 251
Wind_Speed_850mb
74 74 74 71 67 69 78 84 85 66 70 80 74 74 73 78 76 66 59 52 53 52 51 52 38 39 46 51 48 45 46 43 39 36 34 33 31 26
74 73 72 69 66 63 62 72 81 78 74 78 73 69 68 75 70 68 64 57 60 57 61 56 63 58 55 52 50 50 45 45 41 39 36 32 27 24
73 76 77 68 64 60 61 63 69 72 78 78 73 66 56 59 61 70 65 61 69 68 74 70 62 54 51 48 50 49 48 44 42 39 33 29 26 24
66 67 68 65 66 63 59 61 65 72 73 74 71 61 58 55 62 67 68 70 77 75 66 60 53 47 48 48 47 48 47 44 41 36 31 30 28 25
65 65 64 58 56 54 53 53 54 57 62 65 63 62 63 64 68 71 74 81 78 66 62 54 49 45 46 49 50 49 46 43 39 34 33 30 27 26
57 49 47 46 45 44 47 51 52 54 55 56 60 66 70 65 60 60 66 84 74 71 62 59 54 46 45 45 44 43 45 41 37 35 35 35 32 27
49 51 51 47 48 50 52 51 50 48 50 51 57 61 61 60 61 68 69 75 50 62 64 63 60 51 47 43 45 46 46 42 40 42 42 38 33 29
43 44 44 40 38 34 31 29 37 44 46 41 48 60 59 56 65 72 78 71 66 66 65 58 50 50 46 47 49 50 44 43 47 47 44 38 33 29
43 42 39 33 29 23 21 19 22 25 26 26 15 45 40 70 61 52 62 62 74 62 65 61 55 49 46 43 43 44 48 50 49 47 43 38 33 29
43 40 36 36 30 26 21 22 20 17 14 9 4 6 17 37 36 46 50 54 46 51 60 52 49 46 42 41 42 44 45 44 48 47 42 38 34 32
42 44 38 42 37 32 29 28 20 15 18 18 14 12 14 22 31 39 44 47 53 50 59 41 46 44 43 41 40 38 39 44 48 46 42 38 36 33
45 48 40 44 43 43 40 33 24 22 22 21 17 20 22 25 31 35 49 63 53 39 50 47 38 44 35 39 40 42 44 45 47 47 46 44 41 39
49 47 46 42 35 29 35 39 29 27 22 19 18 18 22 32 43 46 45 52 52 42 44 47 38 47 29 40 47 47 44 42 46 50 51 49 46 43
52 55 52 47 35 33 34 35 35 34 30 28 25 27 33 39 45 50 48 48 46 40 16 35 41 44 43 31 38 43 42 45 45 49 50 51 51 49
52 60 59 53 38 38 41 38 42 45 38 34 33 32 31 35 46 49 50 47 42 41 39 25 33 40 44 42 38 41 39 46 50 52 51 49 52 51
40 48 54 53 46 35 40 43 53 50 47 41 38 34 31 34 36 43 51 50 47 41 38 30 30 39 43 46 53 38 40 47 44 48 48 48 48 46
42 46 49 59 55 49 41 43 55 50 51 46 41 39 40 37 36 40 48 55 50 53 44 34 16 28 36 44 50 52 45 41 41 36 44 52 50 48
40 52 61 61 63 55 46 48 58 57 52 49 49 44 44 41 37 39 51 58 50 48 47 48 39 38 42 35 36 44 44 43 42 38 43 43 46 48
41 52 62 65 62 51 47 51 57 62 53 51 59 54 47 43 41 45 45 51 56 53 53 49 47 49 54 57 59 53 49 45 43 42 43 44 46 43
38 48 58 54 53 51 48 51 56 56 55 54 56 60 57 49 40 55 56 59 57 50 49 54 50 49 44 50 61 63 61 62 59 59 57 53 54 49
41 47 53 47 48 48 46 53 56 59 59 58 59 63 66 62 54 45 48 50 53 57 57 58 49 41 45 51 49 43 39 41 41 44 46 51 58 71
29 39 48 47 48 47 46 47 49 55 59 59 58 60 63 69 67 61 55 50 53 50 52 49 52 56 60 61 61 56 45 42 40 45 48 45 49 47
27 28 31 37 42 43 46 48 52 53 57 59 57 59 58 59 54 57 61 60 55 53 48 53 51 52 48 64 61 59 54 54 55 51 51 51 51 49
Wind_Direction_850mb
273 272 272 268 261 259 257 257 256 248 253 254 251 255 252 252 254 251 235 244 249 245 250 228 232 237 232 229 226 223 222 214 210 203 198 192 193 202
274 274 273 270 267 262 258 258 256 256 255 258 256 256 254 251 249 238 242 253 240 246 228 244 257 248 240 223 223 223 211 207 202 198 197 202 201 203
276 274 273 273 272 269 262 259 259 255 253 257 252 254 246 238 237 240 243 239 237 242 242 248 240 232 222 217 213 208 203 199 195 195 197 201 205 205
281 276 272 273 273 267 262 260 259 256 250 251 254 239 225 241 244 241 244 237 238 247 238 222 226 219 211 203 198 196 194 191 192 195 196 201 200 194
284 279 275 271 267 266 263 259 256 253 249 244 249 246 242 245 244 244 240 241 243 230 209 214 204 200 199 196 193 191 191 191 194 196 196 191 189 185
282 277 272 266 266 264 261 258 254 247 242 238 240 245 249 248 242 234 235 225 229 198 206 202 195 192 194 194 192 194 196 197 199 196 188 183 183 181
273 271 272 271 266 261 257 255 250 244 240 237 242 244 244 243 234 230 228 201 196 201 201 198 185 186 196 198 201 204 203 201 196 190 185 181 178 173
265 265 265 261 256 253 243 242 240 241 241 240 249 242 234 239 231 221 209 204 180 192 190 179 184 190 191 201 202 203 198 194 191 189 183 182 182 181
262 259 257 245 232 219 211 213 207 206 224 239 277 230 227 215 203 203 205 213 192 190 180 180 188 195 197 196 195 192 192 189 188 186 186 189 190 193
257 246 232 223 216 205 208 202 200 214 211 187 166 236 210 219 203 206 205 204 195 185 180 188 193 192 191 191 192 191 190 190 188 189 193 196 200 206
244 236 223 220 214 206 206 198 190 185 164 142 130 140 180 191 191 194 194 181 166 179 189 195 196 189 192 191 192 192 192 191 192 196 197 201 206 213
233 228 225 225 217 209 205 197 198 195 185 172 152 141 158 170 177 178 172 171 172 178 191 194 194 187 195 192 191 191 193 197 201 201 203 207 214 221
229 220 214 207 205 200 206 205 192 203 191 176 168 173 162 171 176 178 181 182 183 182 191 194 198 192 187 194 196 199 197 202 209 211 213 219 225 231
224 215 213 200 197 207 207 211 203 205 203 193 194 191 192 187 184 187 188 193 200 188 176 204 207 205 201 195 198 207 213 220 221 220 221 225 230 234
224 213 216 207 210 212 214 218 209 204 206 206 205 202 202 204 195 194 198 199 204 207 215 220 219 210 210 213 214 212 220 219 218 224 223 226 230 232
214 216 214 214 212 215 220 218 206 209 212 212 210 205 200 198 200 200 199 198 198 196 200 213 228 223 221 224 222 229 218 219 218 221 224 230 234 232
204 212 211 210 215 220 215 212 208 206 211 209 207 201 199 196 199 202 200 190 195 202 208 209 219 216 224 232 228 227 232 229 227 232 235 231 233 235
215 220 211 212 218 220 227 217 203 205 207 206 205 202 196 195 190 197 202 206 212 216 222 220 232 234 226 224 219 227 228 225 226 234 227 231 240 240
213 218 218 221 223 229 228 216 208 206 208 209 206 208 208 208 222 211 210 215 219 227 232 230 227 229 229 228 229 228 224 226 229 233 237 232 240 239
220 217 222 225 226 229 221 218 217 214 210 211 212 211 213 216 217 218 221 220 218 220 226 228 227 232 233 235 237 241 246 246 245 248 246 250 254 249
221 229 229 229 232 233 227 226 223 219 215 215 215 217 220 219 221 222 218 226 223 227 229 227 237 233 238 239 239 236 234 238 241 248 248 253 255 250
245 230 231 234 235 231 225 225 224 219 219 220 224 225 226 225 227 230 226 224 227 232 233 241 241 242 233 239 240 239 237 240 245 247 247 245 248 248
247 247 242 234 230 226 229 231 226 223 224 225 228 228 222 221 221 225 229 233 235 237 234 234 242 250 250 244 243 241 245 246 248 246 244 246 249 251